Home > Weather > Bremen > Past weeks

Flag for Germany Past Weather in Bremen, Bremen, Germany — Yesterday and Last 2 Weeks

Now
50 °F

Drizzle. Overcast.


Feels Like: 46 °F
Forecast: 51 / 66 °F
Wind: 9 mph from West

Location: Bremen Airport

Current Time: May 25, 2016 at 7:20:32 AM

Latest Report: May 25, 2016 at 6:50 AM


Visibility: N/A

Pressure: 29.95 "Hg

Humidity: 88%

Dew Point: 46 °F

Location of BremenLocation

Past Weather in Bremen — Graph

°F

Bremen Temperature Yesterday

Maximum temperature yesterday: 55 °F (at 2:50 PM)
Minimum temperature yesterday: 52 °F (at 3:50 AM)
Average temperature yesterday: 53 °F

High & Low Weather Summary for the Past Weeks

 TemperatureHumidityPressure
High79 °F (May 22, 1:50 PM)100% (May 16, 4:50 AM)30.07 "Hg (May 16, 4:50 AM)
Low37 °F (May 16, 4:50 AM)31% (May 10, 3:20 PM)29.59 "Hg (May 12, 3:20 PM)
Average57 °F70%29.86 "Hg
* Reported May 10 6:20 AM — May 25 6:20 AM, Bremen, Weather by CustomWeather, © 2016

Note: Actual official high and low records may vary slightly from our data, if they occured in-between our weather recording intervals... More about our weather records

Advertising

Bremen Weather History for the Previous 24 Hours

Scroll right to see more
 ConditionsComfort  
Time TempWeatherWind HumidityBarometerVisibility
6:20 AM
Wed, May 25
50 °FOvercast.8 mph88%29.95 "HgN/A
5:50 AM50 °FOvercast.9 mph88%29.95 "HgN/A
5:20 AM50 °FLow clouds.6 mph94%29.95 "HgN/A
4:50 AM50 °FLow clouds.6 mph94%29.95 "HgN/A
4:20 AM50 °FLow clouds.6 mph94%29.95 "HgN/A
3:50 AM50 °FMostly cloudy.6 mph100%29.95 "HgN/A
3:20 AM50 °FMostly cloudy.6 mph100%29.95 "Hg6 mi
2:50 AM52 °FMostly cloudy.6 mph94%29.95 "Hg6 mi
2:20 AM52 °FLow clouds.6 mph94%29.95 "Hg6 mi
1:50 AM52 °FDrizzle. Low clouds.3 mph94%29.98 "HgN/A
1:20 AM52 °FDrizzle. Low clouds.3 mph94%29.95 "HgN/A
12:50 AM52 °FOvercast.3 mph94%29.98 "HgN/A
12:20 AM52 °FLow clouds.5 mph88%29.98 "HgN/A
11:50 PM
Tue, May 24
52 °FLow clouds.6 mph88%29.95 "HgN/A
11:20 PM52 °FMostly cloudy.7 mph88%29.95 "HgN/A
10:50 PM52 °FLow clouds.7 mph94%29.95 "HgN/A
10:20 PM52 °FMostly cloudy.6 mph94%29.95 "HgN/A
9:50 PM52 °FOvercast.8 mph94%29.95 "HgN/A
9:20 PM52 °FOvercast.7 mph94%29.95 "HgN/A
8:50 PM54 °FDrizzle. Overcast.8 mph88%29.95 "HgN/A
8:20 PM54 °FOvercast.8 mph88%29.95 "HgN/A
7:50 PM54 °FOvercast.8 mph88%29.95 "HgN/A
7:20 PM54 °FDrizzle. Overcast.8 mph88%29.95 "HgN/A
6:50 PM54 °FOvercast.9 mph88%29.95 "HgN/A
6:20 PM54 °FDrizzle. Partly sunny.10 mph88%29.95 "HgN/A
5:50 PM54 °FPartly sunny.10 mph88%29.95 "HgN/A
5:20 PM54 °FPartly sunny.12 mph88%29.95 "HgN/A
4:50 PM54 °FPartly sunny.10 mph88%29.95 "HgN/A
4:20 PM55 °FPartly sunny.9 mph82%29.95 "HgN/A
3:50 PM55 °FPartly sunny.12 mph82%29.95 "HgN/A
3:20 PM54 °FPartly sunny.12 mph88%29.95 "HgN/A
2:50 PM55 °FPartly sunny.14 mph82%29.95 "HgN/A
2:20 PM54 °FPartly sunny.13 mph82%29.95 "HgN/A
1:50 PM54 °FPartly sunny.13 mph82%29.95 "HgN/A
1:20 PM54 °FPartly sunny.13 mph82%29.95 "HgN/A
12:50 PM52 °FDrizzle. Partly sunny.12 mph88%29.95 "HgN/A
12:20 PM52 °FDrizzle. Partly sunny.14 mph88%29.95 "HgN/A
11:50 AM52 °FDrizzle. Partly sunny.13 mph88%29.95 "HgN/A
11:20 AM52 °FDrizzle. Partly sunny.14 mph88%29.95 "HgN/A
10:50 AM52 °FPartly sunny.14 mph88%29.95 "HgN/A
10:20 AM52 °FPartly sunny.15 mph88%29.95 "Hg6 mi
9:50 AM52 °FPartly sunny.14 mph88%29.95 "HgN/A
9:20 AM52 °FPartly sunny.15 mph88%29.95 "HgN/A
8:50 AM52 °FPartly sunny.14 mph88%29.92 "HgN/A
8:20 AM52 °FPartly sunny.14 mph88%29.92 "Hg6 mi
7:50 AM52 °FPartly sunny.17 mph88%29.92 "HgN/A
7:20 AM52 °FPartly sunny.17 mph88%29.92 "HgN/A
Weather by CustomWeather, © 2016

See weather overviewHow to use our weather pages